owner,sensor,date,latitude,longitude,vertical_datum,sea_water_temperature,qcFlag 
WAVCIS,ioos:station:WAVCIS:CSI03:1,2008-12-01T00:00:00Z,29.4412,-92.0613,10.0,17.1,11111222 
WAVCIS,ioos:station:WAVCIS:CSI03:1,2008-12-01T01:00:00Z,29.4412,-92.0613,10.0,17.22,11111222 
WAVCIS,ioos:station:WAVCIS:CSI03:1,2008-12-01T02:00:00Z,29.4412,-92.0613,10.0,17.33,11111222 
WAVCIS,ioos:station:WAVCIS:CSI03:1,2008-12-01T03:00:00Z,29.4412,-92.0613,10.0,17.27,11111222 
WAVCIS,ioos:station:WAVCIS:CSI03:1,2008-12-01T04:00:00Z,29.4412,-92.0613,10.0,17.24,11111222 
WAVCIS,ioos:station:WAVCIS:CSI03:1,2008-12-01T05:00:00Z,29.4412,-92.0613,10.0,17.15,11111222 
WAVCIS,ioos:station:WAVCIS:CSI03:1,2008-12-01T06:00:00Z,29.4412,-92.0613,10.0,17.08,11111222 
WAVCIS,ioos:station:WAVCIS:CSI03:1,2008-12-01T07:00:00Z,29.4412,-92.0613,10.0,16.86,11111222 
WAVCIS,ioos:station:WAVCIS:CSI03:1,2008-12-01T08:00:00Z,29.4412,-92.0613,10.0,16.78,11111222 
WAVCIS,ioos:station:WAVCIS:CSI03:1,2008-12-01T09:00:00Z,29.4412,-92.0613,10.0,16.73,11111222 
WAVCIS,ioos:station:WAVCIS:CSI03:1,2008-12-01T10:00:00Z,29.4412,-92.0613,10.0,16.65,11111222 
WAVCIS,ioos:station:WAVCIS:CSI03:1,2008-12-01T11:00:00Z,29.4412,-92.0613,10.0,16.6,11111222 
WAVCIS,ioos:station:WAVCIS:CSI03:1,2008-12-01T12:00:00Z,29.4412,-92.0613,10.0,16.49,11111222 
WAVCIS,ioos:station:WAVCIS:CSI03:1,2008-12-01T13:00:00Z,29.4412,-92.0613,10.0,16.36,11111222 
WAVCIS,ioos:station:WAVCIS:CSI03:1,2008-12-01T14:00:00Z,29.4412,-92.0613,10.0,16.28,11111222 
WAVCIS,ioos:station:WAVCIS:CSI03:1,2008-12-01T15:00:00Z,29.4412,-92.0613,10.0,16.2,11111222 
WAVCIS,ioos:station:WAVCIS:CSI03:1,2008-12-01T16:00:00Z,29.4412,-92.0613,10.0,16.24,11111222 
WAVCIS,ioos:station:WAVCIS:CSI03:1,2008-12-01T17:00:00Z,29.4412,-92.0613,10.0,16.05,11111222 
WAVCIS,ioos:station:WAVCIS:CSI03:1,2008-12-01T18:00:00Z,29.4412,-92.0613,10.0,16.0,11111222 
WAVCIS,ioos:station:WAVCIS:CSI03:1,2008-12-01T19:00:00Z,29.4412,-92.0613,10.0,16.04,11111222 
WAVCIS,ioos:station:WAVCIS:CSI03:1,2008-12-01T20:00:00Z,29.4412,-92.0613,10.0,16.09,11111222 
WAVCIS,ioos:station:WAVCIS:CSI03:1,2008-12-01T21:00:00Z,29.4412,-92.0613,10.0,16.17,11111222 
WAVCIS,ioos:station:WAVCIS:CSI03:1,2008-12-01T22:00:00Z,29.4412,-92.0613,10.0,16.35,11111222 
WAVCIS,ioos:station:WAVCIS:CSI03:1,2008-12-01T23:00:00Z,29.4412,-92.0613,10.0,16.32,11111222 
WAVCIS,ioos:station:WAVCIS:CSI03:1,2008-12-02T00:00:00Z,29.4412,-92.0613,10.0,16.41,11111222 
WAVCIS,ioos:station:WAVCIS:CSI03:1,2008-12-02T01:00:00Z,29.4412,-92.0613,10.0,16.34,11111222 
WAVCIS,ioos:station:WAVCIS:CSI03:1,2008-12-02T02:00:00Z,29.4412,-92.0613,10.0,16.15,11111222 
WAVCIS,ioos:station:WAVCIS:CSI03:1,2008-12-02T03:00:00Z,29.4412,-92.0613,10.0,16.19,11111222 
WAVCIS,ioos:station:WAVCIS:CSI03:1,2008-12-02T04:00:00Z,29.4412,-92.0613,10.0,16.16,11111222 
WAVCIS,ioos:station:WAVCIS:CSI03:1,2008-12-02T05:00:00Z,29.4412,-92.0613,10.0,16.06,11111222 
WAVCIS,ioos:station:WAVCIS:CSI03:1,2008-12-02T06:00:00Z,29.4412,-92.0613,10.0,16.02,11111222 
WAVCIS,ioos:station:WAVCIS:CSI03:1,2008-12-02T07:00:00Z,29.4412,-92.0613,10.0,16.11,11111222 
WAVCIS,ioos:station:WAVCIS:CSI03:1,2008-12-02T08:00:00Z,29.4412,-92.0613,10.0,16.13,11111222 
WAVCIS,ioos:station:WAVCIS:CSI03:1,2008-12-02T09:00:00Z,29.4412,-92.0613,10.0,16.15,11111222 
WAVCIS,ioos:station:WAVCIS:CSI03:1,2008-12-02T10:00:00Z,29.4412,-92.0613,10.0,16.08,11111222 
WAVCIS,ioos:station:WAVCIS:CSI03:1,2008-12-02T11:00:00Z,29.4412,-92.0613,10.0,16.03,11111222 
WAVCIS,ioos:station:WAVCIS:CSI03:1,2008-12-02T12:00:00Z,29.4412,-92.0613,10.0,15.96,11111222 
WAVCIS,ioos:station:WAVCIS:CSI03:1,2008-12-02T13:00:00Z,29.4412,-92.0613,10.0,15.8,11111222 
WAVCIS,ioos:station:WAVCIS:CSI03:1,2008-12-02T14:00:00Z,29.4412,-92.0613,10.0,15.64,11111222 
WAVCIS,ioos:station:WAVCIS:CSI03:1,2008-12-02T15:00:00Z,29.4412,-92.0613,10.0,15.57,11111222 
WAVCIS,ioos:station:WAVCIS:CSI03:1,2008-12-02T16:00:00Z,29.4412,-92.0613,10.0,15.53,11111222 
WAVCIS,ioos:station:WAVCIS:CSI03:1,2008-12-02T17:00:00Z,29.4412,-92.0613,10.0,15.47,11111222 
WAVCIS,ioos:station:WAVCIS:CSI03:1,2008-12-02T18:00:00Z,29.4412,-92.0613,10.0,15.45,11111222 
WAVCIS,ioos:station:WAVCIS:CSI03:1,2008-12-02T19:00:00Z,29.4412,-92.0613,10.0,15.42,11111222 
WAVCIS,ioos:station:WAVCIS:CSI03:1,2008-12-02T20:00:00Z,29.4412,-92.0613,10.0,15.46,11111222 
WAVCIS,ioos:station:WAVCIS:CSI03:1,2008-12-02T21:00:00Z,29.4412,-92.0613,10.0,15.59,11111222 
WAVCIS,ioos:station:WAVCIS:CSI03:1,2008-12-02T22:00:00Z,29.4412,-92.0613,10.0,15.63,11111222 
WAVCIS,ioos:station:WAVCIS:CSI03:1,2008-12-02T23:00:00Z,29.4412,-92.0613,10.0,15.6,11111222 
WAVCIS,ioos:station:WAVCIS:CSI03:1,2008-12-03T00:00:00Z,29.4412,-92.0613,10.0,15.6,11111222 
WAVCIS,ioos:station:WAVCIS:CSI03:1,2008-12-03T01:00:00Z,29.4412,-92.0613,10.0,15.58,11111222 
WAVCIS,ioos:station:WAVCIS:CSI03:1,2008-12-03T02:00:00Z,29.4412,-92.0613,10.0,15.54,11111222 
WAVCIS,ioos:station:WAVCIS:CSI03:1,2008-12-03T03:00:00Z,29.4412,-92.0613,10.0,15.51,11111222 
WAVCIS,ioos:station:WAVCIS:CSI03:1,2008-12-03T04:00:00Z,29.4412,-92.0613,10.0,15.43,11111222 
WAVCIS,ioos:station:WAVCIS:CSI03:1,2008-12-03T05:00:00Z,29.4412,-92.0613,10.0,15.43,11111222 
WAVCIS,ioos:station:WAVCIS:CSI03:1,2008-12-03T06:00:00Z,29.4412,-92.0613,10.0,15.37,11111222 
WAVCIS,ioos:station:WAVCIS:CSI03:1,2008-12-03T07:00:00Z,29.4412,-92.0613,10.0,15.24,11111222 
WAVCIS,ioos:station:WAVCIS:CSI03:1,2008-12-03T08:00:00Z,29.4412,-92.0613,10.0,15.13,11111222 
WAVCIS,ioos:station:WAVCIS:CSI03:1,2008-12-03T09:00:00Z,29.4412,-92.0613,10.0,15.11,11111222 
WAVCIS,ioos:station:WAVCIS:CSI03:1,2008-12-03T10:00:00Z,29.4412,-92.0613,10.0,15.06,11111222 
WAVCIS,ioos:station:WAVCIS:CSI03:1,2008-12-03T11:00:00Z,29.4412,-92.0613,10.0,14.92,11111222 
WAVCIS,ioos:station:WAVCIS:CSI03:1,2008-12-03T12:00:00Z,29.4412,-92.0613,10.0,14.81,11111222 
WAVCIS,ioos:station:WAVCIS:CSI03:1,2008-12-03T13:00:00Z,29.4412,-92.0613,10.0,14.65,11111222 
WAVCIS,ioos:station:WAVCIS:CSI03:1,2008-12-03T14:00:00Z,29.4412,-92.0613,10.0,14.6,11111222 
WAVCIS,ioos:station:WAVCIS:CSI03:1,2008-12-03T15:00:00Z,29.4412,-92.0613,10.0,14.65,11111222 
WAVCIS,ioos:station:WAVCIS:CSI03:1,2008-12-03T16:00:00Z,29.4412,-92.0613,10.0,14.58,11111222 
WAVCIS,ioos:station:WAVCIS:CSI03:1,2008-12-03T17:00:00Z,29.4412,-92.0613,10.0,14.54,11111222 
WAVCIS,ioos:station:WAVCIS:CSI03:1,2008-12-03T18:00:00Z,29.4412,-92.0613,10.0,14.95,11111222 
WAVCIS,ioos:station:WAVCIS:CSI03:1,2008-12-03T19:00:00Z,29.4412,-92.0613,10.0,14.68,11111222 
WAVCIS,ioos:station:WAVCIS:CSI03:1,2008-12-03T20:00:00Z,29.4412,-92.0613,10.0,14.85,11111222 
WAVCIS,ioos:station:WAVCIS:CSI03:1,2008-12-03T21:00:00Z,29.4412,-92.0613,10.0,14.88,11111222 
WAVCIS,ioos:station:WAVCIS:CSI03:1,2008-12-03T22:00:00Z,29.4412,-92.0613,10.0,14.67,11111222 
WAVCIS,ioos:station:WAVCIS:CSI03:1,2008-12-03T23:00:00Z,29.4412,-92.0613,10.0,14.33,11111222 
WAVCIS,ioos:station:WAVCIS:CSI03:1,2008-12-04T00:00:00Z,29.4412,-92.0613,10.0,14.98,11111222 
WAVCIS,ioos:station:WAVCIS:CSI03:1,2008-12-04T01:00:00Z,29.4412,-92.0613,10.0,15.0,11111222 
WAVCIS,ioos:station:WAVCIS:CSI03:1,2008-12-04T02:00:00Z,29.4412,-92.0613,10.0,14.89,11111222 
WAVCIS,ioos:station:WAVCIS:CSI03:1,2008-12-04T03:00:00Z,29.4412,-92.0613,10.0,14.79,11111222 
WAVCIS,ioos:station:WAVCIS:CSI03:1,2008-12-04T04:00:00Z,29.4412,-92.0613,10.0,14.72,11111222 
WAVCIS,ioos:station:WAVCIS:CSI03:1,2008-12-04T05:00:00Z,29.4412,-92.0613,10.0,14.69,11111222 
WAVCIS,ioos:station:WAVCIS:CSI03:1,2008-12-04T06:00:00Z,29.4412,-92.0613,10.0,14.7,11111222 
WAVCIS,ioos:station:WAVCIS:CSI03:1,2008-12-04T07:00:00Z,29.4412,-92.0613,10.0,14.66,11111222 
WAVCIS,ioos:station:WAVCIS:CSI03:1,2008-12-04T08:00:00Z,29.4412,-92.0613,10.0,14.82,11111222 
WAVCIS,ioos:station:WAVCIS:CSI03:1,2008-12-04T09:00:00Z,29.4412,-92.0613,10.0,14.9,11111222 
WAVCIS,ioos:station:WAVCIS:CSI03:1,2008-12-04T10:00:00Z,29.4412,-92.0613,10.0,14.99,11111222 
WAVCIS,ioos:station:WAVCIS:CSI03:1,2008-12-04T11:00:00Z,29.4412,-92.0613,10.0,14.91,11111222 
WAVCIS,ioos:station:WAVCIS:CSI03:1,2008-12-04T12:00:00Z,29.4412,-92.0613,10.0,14.94,11111222 
WAVCIS,ioos:station:WAVCIS:CSI03:1,2008-12-04T13:00:00Z,29.4412,-92.0613,10.0,14.71,11111222 
WAVCIS,ioos:station:WAVCIS:CSI03:1,2008-12-04T14:00:00Z,29.4412,-92.0613,10.0,14.69,11111222 
WAVCIS,ioos:station:WAVCIS:CSI03:1,2008-12-04T15:00:00Z,29.4412,-92.0613,10.0,14.69,11111222 
WAVCIS,ioos:station:WAVCIS:CSI03:1,2008-12-04T16:00:00Z,29.4412,-92.0613,10.0,14.7,11111222 
WAVCIS,ioos:station:WAVCIS:CSI03:1,2008-12-04T17:00:00Z,29.4412,-92.0613,10.0,14.71,11111222 
WAVCIS,ioos:station:WAVCIS:CSI03:1,2008-12-04T18:00:00Z,29.4412,-92.0613,10.0,14.73,11111222 
WAVCIS,ioos:station:WAVCIS:CSI03:1,2008-12-04T19:00:00Z,29.4412,-92.0613,10.0,14.78,11111222 
WAVCIS,ioos:station:WAVCIS:CSI03:1,2008-12-04T20:00:00Z,29.4412,-92.0613,10.0,14.78,11111222 
WAVCIS,ioos:station:WAVCIS:CSI03:1,2008-12-04T21:00:00Z,29.4412,-92.0613,10.0,14.76,11111222 
WAVCIS,ioos:station:WAVCIS:CSI03:1,2008-12-04T22:00:00Z,29.4412,-92.0613,10.0,14.73,11111222 
WAVCIS,ioos:station:WAVCIS:CSI03:1,2008-12-04T23:00:00Z,29.4412,-92.0613,10.0,14.56,11111222 
WAVCIS,ioos:station:WAVCIS:CSI03:1,2008-12-05T00:00:00Z,29.4412,-92.0613,10.0,14.54,11111222 
WAVCIS,ioos:station:WAVCIS:CSI03:1,2008-12-05T01:00:00Z,29.4412,-92.0613,10.0,14.48,11111222 
WAVCIS,ioos:station:WAVCIS:CSI03:1,2008-12-05T02:00:00Z,29.4412,-92.0613,10.0,14.41,11111222 
WAVCIS,ioos:station:WAVCIS:CSI03:1,2008-12-05T03:00:00Z,29.4412,-92.0613,10.0,14.34,11111222 
WAVCIS,ioos:station:WAVCIS:CSI03:1,2008-12-05T04:00:00Z,29.4412,-92.0613,10.0,14.22,11111222 
WAVCIS,ioos:station:WAVCIS:CSI03:1,2008-12-05T05:00:00Z,29.4412,-92.0613,10.0,14.07,11111222 
WAVCIS,ioos:station:WAVCIS:CSI03:1,2008-12-05T06:00:00Z,29.4412,-92.0613,10.0,13.88,11111222 
WAVCIS,ioos:station:WAVCIS:CSI03:1,2008-12-05T07:00:00Z,29.4412,-92.0613,10.0,13.56,11111222 
WAVCIS,ioos:station:WAVCIS:CSI03:1,2008-12-05T08:00:00Z,29.4412,-92.0613,10.0,13.61,11111222 
WAVCIS,ioos:station:WAVCIS:CSI03:1,2008-12-05T09:00:00Z,29.4412,-92.0613,10.0,13.51,11111222 
WAVCIS,ioos:station:WAVCIS:CSI03:1,2008-12-05T10:00:00Z,29.4412,-92.0613,10.0,13.43,11111222 
WAVCIS,ioos:station:WAVCIS:CSI03:1,2008-12-05T11:00:00Z,29.4412,-92.0613,10.0,13.33,11111222 
WAVCIS,ioos:station:WAVCIS:CSI03:1,2008-12-05T12:00:00Z,29.4412,-92.0613,10.0,13.18,11111222 
WAVCIS,ioos:station:WAVCIS:CSI03:1,2008-12-05T13:00:00Z,29.4412,-92.0613,10.0,13.01,11111222 
WAVCIS,ioos:station:WAVCIS:CSI03:1,2008-12-05T14:00:00Z,29.4412,-92.0613,10.0,12.96,11111222 
WAVCIS,ioos:station:WAVCIS:CSI03:1,2008-12-05T15:00:00Z,29.4412,-92.0613,10.0,13.02,11111222 
WAVCIS,ioos:station:WAVCIS:CSI03:1,2008-12-05T16:00:00Z,29.4412,-92.0613,10.0,13.17,11111222 
WAVCIS,ioos:station:WAVCIS:CSI03:1,2008-12-05T17:00:00Z,29.4412,-92.0613,10.0,13.26,11111222 
WAVCIS,ioos:station:WAVCIS:CSI03:1,2008-12-05T18:00:00Z,29.4412,-92.0613,10.0,13.32,11111222 
WAVCIS,ioos:station:WAVCIS:CSI03:1,2008-12-05T19:00:00Z,29.4412,-92.0613,10.0,13.42,11111222 
WAVCIS,ioos:station:WAVCIS:CSI03:1,2008-12-05T20:00:00Z,29.4412,-92.0613,10.0,13.6,11111222 
WAVCIS,ioos:station:WAVCIS:CSI03:1,2008-12-05T21:00:00Z,29.4412,-92.0613,10.0,13.74,11111222 
WAVCIS,ioos:station:WAVCIS:CSI03:1,2008-12-05T22:00:00Z,29.4412,-92.0613,10.0,13.75,11111222 
WAVCIS,ioos:station:WAVCIS:CSI03:1,2008-12-05T23:00:00Z,29.4412,-92.0613,10.0,13.63,11111222 
WAVCIS,ioos:station:WAVCIS:CSI03:1,2008-12-06T00:00:00Z,29.4412,-92.0613,10.0,13.53,11111222 
WAVCIS,ioos:station:WAVCIS:CSI03:1,2008-12-06T01:00:00Z,29.4412,-92.0613,10.0,13.59,11111222 
WAVCIS,ioos:station:WAVCIS:CSI03:1,2008-12-06T02:00:00Z,29.4412,-92.0613,10.0,13.75,11111222 
WAVCIS,ioos:station:WAVCIS:CSI03:1,2008-12-06T03:00:00Z,29.4412,-92.0613,10.0,13.92,11111222 
WAVCIS,ioos:station:WAVCIS:CSI03:1,2008-12-06T04:00:00Z,29.4412,-92.0613,10.0,14.07,11111222 
WAVCIS,ioos:station:WAVCIS:CSI03:1,2008-12-06T05:00:00Z,29.4412,-92.0613,10.0,14.16,11111222 
WAVCIS,ioos:station:WAVCIS:CSI03:1,2008-12-06T06:00:00Z,29.4412,-92.0613,10.0,14.14,11111222 
WAVCIS,ioos:station:WAVCIS:CSI03:1,2008-12-06T07:00:00Z,29.4412,-92.0613,10.0,14.03,11111222 
WAVCIS,ioos:station:WAVCIS:CSI03:1,2008-12-06T08:00:00Z,29.4412,-92.0613,10.0,13.26,11111222 
WAVCIS,ioos:station:WAVCIS:CSI03:1,2008-12-06T09:00:00Z,29.4412,-92.0613,10.0,13.11,11111222 
WAVCIS,ioos:station:WAVCIS:CSI03:1,2008-12-06T10:00:00Z,29.4412,-92.0613,10.0,14.13,11111222 
WAVCIS,ioos:station:WAVCIS:CSI03:1,2008-12-06T11:00:00Z,29.4412,-92.0613,10.0,14.21,11111222 
WAVCIS,ioos:station:WAVCIS:CSI03:1,2008-12-06T12:00:00Z,29.4412,-92.0613,10.0,14.18,11111222 
WAVCIS,ioos:station:WAVCIS:CSI03:1,2008-12-06T13:00:00Z,29.4412,-92.0613,10.0,14.1,11111222 
WAVCIS,ioos:station:WAVCIS:CSI03:1,2008-12-06T14:00:00Z,29.4412,-92.0613,10.0,13.96,11111222 
WAVCIS,ioos:station:WAVCIS:CSI03:1,2008-12-06T15:00:00Z,29.4412,-92.0613,10.0,13.93,11111222 
WAVCIS,ioos:station:WAVCIS:CSI03:1,2008-12-06T16:00:00Z,29.4412,-92.0613,10.0,13.97,11111222 
WAVCIS,ioos:station:WAVCIS:CSI03:1,2008-12-06T17:00:00Z,29.4412,-92.0613,10.0,14.07,11111222 
WAVCIS,ioos:station:WAVCIS:CSI03:1,2008-12-06T18:00:00Z,29.4412,-92.0613,10.0,13.99,11111222 
WAVCIS,ioos:station:WAVCIS:CSI03:1,2008-12-06T19:00:00Z,29.4412,-92.0613,10.0,14.07,11111222 
WAVCIS,ioos:station:WAVCIS:CSI03:1,2008-12-06T20:00:00Z,29.4412,-92.0613,10.0,14.11,11111222 
WAVCIS,ioos:station:WAVCIS:CSI03:1,2008-12-06T21:00:00Z,29.4412,-92.0613,10.0,14.11,11111222 
WAVCIS,ioos:station:WAVCIS:CSI03:1,2008-12-06T22:00:00Z,29.4412,-92.0613,10.0,13.98,11111222 
WAVCIS,ioos:station:WAVCIS:CSI03:1,2008-12-06T23:00:00Z,29.4412,-92.0613,10.0,14.08,11111222 
WAVCIS,ioos:station:WAVCIS:CSI03:1,2008-12-07T00:00:00Z,29.4412,-92.0613,10.0,14.05,11111222 
WAVCIS,ioos:station:WAVCIS:CSI03:1,2008-12-07T01:00:00Z,29.4412,-92.0613,10.0,14.07,11111222 
WAVCIS,ioos:station:WAVCIS:CSI03:1,2008-12-07T02:00:00Z,29.4412,-92.0613,10.0,13.98,11111222 
WAVCIS,ioos:station:WAVCIS:CSI03:1,2008-12-07T03:00:00Z,29.4412,-92.0613,10.0,14.04,11111222 
WAVCIS,ioos:station:WAVCIS:CSI03:1,2008-12-07T04:00:00Z,29.4412,-92.0613,10.0,14.03,11111222 
WAVCIS,ioos:station:WAVCIS:CSI03:1,2008-12-07T05:00:00Z,29.4412,-92.0613,10.0,14.18,11111222 
WAVCIS,ioos:station:WAVCIS:CSI03:1,2008-12-07T06:00:00Z,29.4412,-92.0613,10.0,14.11,11111222 
WAVCIS,ioos:station:WAVCIS:CSI03:1,2008-12-07T07:00:00Z,29.4412,-92.0613,10.0,13.5,11111222 
WAVCIS,ioos:station:WAVCIS:CSI03:1,2008-12-07T08:00:00Z,29.4412,-92.0613,10.0,13.28,11111222 
WAVCIS,ioos:station:WAVCIS:CSI03:1,2008-12-07T09:00:00Z,29.4412,-92.0613,10.0,13.17,11111222 
WAVCIS,ioos:station:WAVCIS:CSI03:1,2008-12-07T10:00:00Z,29.4412,-92.0613,10.0,12.63,11111222 
WAVCIS,ioos:station:WAVCIS:CSI03:1,2008-12-07T11:00:00Z,29.4412,-92.0613,10.0,12.89,11111222 
WAVCIS,ioos:station:WAVCIS:CSI03:1,2008-12-07T12:00:00Z,29.4412,-92.0613,10.0,13.26,11111222 
WAVCIS,ioos:station:WAVCIS:CSI03:1,2008-12-07T13:00:00Z,29.4412,-92.0613,10.0,13.46,11111222 
WAVCIS,ioos:station:WAVCIS:CSI03:1,2008-12-07T14:00:00Z,29.4412,-92.0613,10.0,13.09,11111222 
WAVCIS,ioos:station:WAVCIS:CSI03:1,2008-12-07T15:00:00Z,29.4412,-92.0613,10.0,13.05,11111222 
WAVCIS,ioos:station:WAVCIS:CSI03:1,2008-12-07T16:00:00Z,29.4412,-92.0613,10.0,13.13,11111222 
WAVCIS,ioos:station:WAVCIS:CSI03:1,2008-12-07T17:00:00Z,29.4412,-92.0613,10.0,13.1,11111222 
WAVCIS,ioos:station:WAVCIS:CSI03:1,2008-12-07T18:00:00Z,29.4412,-92.0613,10.0,13.45,11111222 
WAVCIS,ioos:station:WAVCIS:CSI03:1,2008-12-07T19:00:00Z,29.4412,-92.0613,10.0,13.75,11111222 
WAVCIS,ioos:station:WAVCIS:CSI03:1,2008-12-07T20:00:00Z,29.4412,-92.0613,10.0,13.62,11111222 
WAVCIS,ioos:station:WAVCIS:CSI03:1,2008-12-07T21:00:00Z,29.4412,-92.0613,10.0,13.68,11111222 
WAVCIS,ioos:station:WAVCIS:CSI03:1,2008-12-07T22:00:00Z,29.4412,-92.0613,10.0,13.74,11111222 
WAVCIS,ioos:station:WAVCIS:CSI03:1,2008-12-07T23:00:00Z,29.4412,-92.0613,10.0,13.8,11111222 
WAVCIS,ioos:station:WAVCIS:CSI03:1,2008-12-08T00:00:00Z,29.4412,-92.0613,10.0,13.88,11111222 
WAVCIS,ioos:station:WAVCIS:CSI03:1,2008-12-08T01:00:00Z,29.4412,-92.0613,10.0,13.85,11111222 
WAVCIS,ioos:station:WAVCIS:CSI03:1,2008-12-08T02:00:00Z,29.4412,-92.0613,10.0,13.91,11111222 
WAVCIS,ioos:station:WAVCIS:CSI03:1,2008-12-08T03:00:00Z,29.4412,-92.0613,10.0,13.91,11111222 
WAVCIS,ioos:station:WAVCIS:CSI03:1,2008-12-08T04:00:00Z,29.4412,-92.0613,10.0,13.9,11111222 
WAVCIS,ioos:station:WAVCIS:CSI03:1,2008-12-08T05:00:00Z,29.4412,-92.0613,10.0,13.95,11111222 
WAVCIS,ioos:station:WAVCIS:CSI03:1,2008-12-08T06:00:00Z,29.4412,-92.0613,10.0,14.01,11111222 
WAVCIS,ioos:station:WAVCIS:CSI03:1,2008-12-08T07:00:00Z,29.4412,-92.0613,10.0,13.88,11111222 
WAVCIS,ioos:station:WAVCIS:CSI03:1,2008-12-08T08:00:00Z,29.4412,-92.0613,10.0,13.84,11111222 
WAVCIS,ioos:station:WAVCIS:CSI03:1,2008-12-08T09:00:00Z,29.4412,-92.0613,10.0,13.65,11111222 
WAVCIS,ioos:station:WAVCIS:CSI03:1,2008-12-08T10:00:00Z,29.4412,-92.0613,10.0,13.45,11111222 
WAVCIS,ioos:station:WAVCIS:CSI03:1,2008-12-08T11:00:00Z,29.4412,-92.0613,10.0,13.34,11111222 
WAVCIS,ioos:station:WAVCIS:CSI03:1,2008-12-08T12:00:00Z,29.4412,-92.0613,10.0,13.27,11111222 
WAVCIS,ioos:station:WAVCIS:CSI03:1,2008-12-08T13:00:00Z,29.4412,-92.0613,10.0,13.22,11111222 
WAVCIS,ioos:station:WAVCIS:CSI03:1,2008-12-08T14:00:00Z,29.4412,-92.0613,10.0,13.27,11111222 
WAVCIS,ioos:station:WAVCIS:CSI03:1,2008-12-08T15:00:00Z,29.4412,-92.0613,10.0,13.33,11111222 
WAVCIS,ioos:station:WAVCIS:CSI03:1,2008-12-08T16:00:00Z,29.4412,-92.0613,10.0,13.47,11111222 
WAVCIS,ioos:station:WAVCIS:CSI03:1,2008-12-08T17:00:00Z,29.4412,-92.0613,10.0,13.77,11111222 
WAVCIS,ioos:station:WAVCIS:CSI03:1,2008-12-08T18:00:00Z,29.4412,-92.0613,10.0,14.09,11111222 
WAVCIS,ioos:station:WAVCIS:CSI03:1,2008-12-08T19:00:00Z,29.4412,-92.0613,10.0,14.29,11111222 
WAVCIS,ioos:station:WAVCIS:CSI03:1,2008-12-08T20:00:00Z,29.4412,-92.0613,10.0,14.3,11111222 
WAVCIS,ioos:station:WAVCIS:CSI03:1,2008-12-08T21:00:00Z,29.4412,-92.0613,10.0,14.46,11111222 
WAVCIS,ioos:station:WAVCIS:CSI03:1,2008-12-08T22:00:00Z,29.4412,-92.0613,10.0,14.47,11111222 
WAVCIS,ioos:station:WAVCIS:CSI03:1,2008-12-08T23:00:00Z,29.4412,-92.0613,10.0,14.49,11111222 
WAVCIS,ioos:station:WAVCIS:CSI03:1,2008-12-09T00:00:00Z,29.4412,-92.0613,10.0,14.52,11111222 
WAVCIS,ioos:station:WAVCIS:CSI03:1,2008-12-09T01:00:00Z,29.4412,-92.0613,10.0,14.57,11111222 
WAVCIS,ioos:station:WAVCIS:CSI03:1,2008-12-09T02:00:00Z,29.4412,-92.0613,10.0,14.57,11111222 
WAVCIS,ioos:station:WAVCIS:CSI03:1,2008-12-09T03:00:00Z,29.4412,-92.0613,10.0,14.35,11111222 
WAVCIS,ioos:station:WAVCIS:CSI03:1,2008-12-09T04:00:00Z,29.4412,-92.0613,10.0,14.21,11111222 
WAVCIS,ioos:station:WAVCIS:CSI03:1,2008-12-09T05:00:00Z,29.4412,-92.0613,10.0,14.13,11111222 
WAVCIS,ioos:station:WAVCIS:CSI03:1,2008-12-09T06:00:00Z,29.4412,-92.0613,10.0,14.1,11111222 
WAVCIS,ioos:station:WAVCIS:CSI03:1,2008-12-09T07:00:00Z,29.4412,-92.0613,10.0,14.08,11111222 
WAVCIS,ioos:station:WAVCIS:CSI03:1,2008-12-09T08:00:00Z,29.4412,-92.0613,10.0,14.08,11111222 
WAVCIS,ioos:station:WAVCIS:CSI03:1,2008-12-09T09:00:00Z,29.4412,-92.0613,10.0,14.07,11111222 
WAVCIS,ioos:station:WAVCIS:CSI03:1,2008-12-09T10:00:00Z,29.4412,-92.0613,10.0,14.04,11111222 
WAVCIS,ioos:station:WAVCIS:CSI03:1,2008-12-09T11:00:00Z,29.4412,-92.0613,10.0,13.99,11111222 
WAVCIS,ioos:station:WAVCIS:CSI03:1,2008-12-09T12:00:00Z,29.4412,-92.0613,10.0,13.96,11111222 
WAVCIS,ioos:station:WAVCIS:CSI03:1,2008-12-09T13:00:00Z,29.4412,-92.0613,10.0,13.95,11111222 
WAVCIS,ioos:station:WAVCIS:CSI03:1,2008-12-09T14:00:00Z,29.4412,-92.0613,10.0,14.03,11111222 
WAVCIS,ioos:station:WAVCIS:CSI03:1,2008-12-09T15:00:00Z,29.4412,-92.0613,10.0,14.16,11111222 
WAVCIS,ioos:station:WAVCIS:CSI03:1,2008-12-09T16:00:00Z,29.4412,-92.0613,10.0,14.28,11111222 
WAVCIS,ioos:station:WAVCIS:CSI03:1,2008-12-09T17:00:00Z,29.4412,-92.0613,10.0,14.18,11111222 
WAVCIS,ioos:station:WAVCIS:CSI03:1,2008-12-09T18:00:00Z,29.4412,-92.0613,10.0,14.23,11111222 
WAVCIS,ioos:station:WAVCIS:CSI03:1,2008-12-09T19:00:00Z,29.4412,-92.0613,10.0,14.28,11111222 
WAVCIS,ioos:station:WAVCIS:CSI03:1,2008-12-09T20:00:00Z,29.4412,-92.0613,10.0,14.32,11111222 
WAVCIS,ioos:station:WAVCIS:CSI03:1,2008-12-09T21:00:00Z,29.4412,-92.0613,10.0,14.4,11111222 
WAVCIS,ioos:station:WAVCIS:CSI03:1,2008-12-09T22:00:00Z,29.4412,-92.0613,10.0,14.46,11111222 
WAVCIS,ioos:station:WAVCIS:CSI03:1,2008-12-09T23:00:00Z,29.4412,-92.0613,10.0,14.5,11111222 
WAVCIS,ioos:station:WAVCIS:CSI03:1,2008-12-10T00:00:00Z,29.4412,-92.0613,10.0,14.54,11111222 
WAVCIS,ioos:station:WAVCIS:CSI03:1,2008-12-10T01:00:00Z,29.4412,-92.0613,10.0,14.58,11111222 
WAVCIS,ioos:station:WAVCIS:CSI03:1,2008-12-10T02:00:00Z,29.4412,-92.0613,10.0,14.59,11111222 
WAVCIS,ioos:station:WAVCIS:CSI03:1,2008-12-10T03:00:00Z,29.4412,-92.0613,10.0,14.62,11111222 
WAVCIS,ioos:station:WAVCIS:CSI03:1,2008-12-10T04:00:00Z,29.4412,-92.0613,10.0,14.65,11111222 
WAVCIS,ioos:station:WAVCIS:CSI03:1,2008-12-10T05:00:00Z,29.4412,-92.0613,10.0,14.63,11111222 
WAVCIS,ioos:station:WAVCIS:CSI03:1,2008-12-10T06:00:00Z,29.4412,-92.0613,10.0,14.66,11111222 
WAVCIS,ioos:station:WAVCIS:CSI03:1,2008-12-10T07:00:00Z,29.4412,-92.0613,10.0,14.58,11111222 
WAVCIS,ioos:station:WAVCIS:CSI03:1,2008-12-10T08:00:00Z,29.4412,-92.0613,10.0,14.71,11111222 
WAVCIS,ioos:station:WAVCIS:CSI03:1,2008-12-10T09:00:00Z,29.4412,-92.0613,10.0,14.79,11111222 
WAVCIS,ioos:station:WAVCIS:CSI03:1,2008-12-10T10:00:00Z,29.4412,-92.0613,10.0,14.76,11111222 
WAVCIS,ioos:station:WAVCIS:CSI03:1,2008-12-10T11:00:00Z,29.4412,-92.0613,10.0,14.69,11111222 
WAVCIS,ioos:station:WAVCIS:CSI03:1,2008-12-10T12:00:00Z,29.4412,-92.0613,10.0,14.49,11111222 
WAVCIS,ioos:station:WAVCIS:CSI03:1,2008-12-10T13:00:00Z,29.4412,-92.0613,10.0,14.24,11111222 
WAVCIS,ioos:station:WAVCIS:CSI03:1,2008-12-10T14:00:00Z,29.4412,-92.0613,10.0,14.12,11111222 
WAVCIS,ioos:station:WAVCIS:CSI03:1,2008-12-10T15:00:00Z,29.4412,-92.0613,10.0,14.05,11111222 
WAVCIS,ioos:station:WAVCIS:CSI03:1,2008-12-10T16:00:00Z,29.4412,-92.0613,10.0,13.95,11111222 
WAVCIS,ioos:station:WAVCIS:CSI03:1,2008-12-10T17:00:00Z,29.4412,-92.0613,10.0,13.84,11111222 
WAVCIS,ioos:station:WAVCIS:CSI03:1,2008-12-10T18:00:00Z,29.4412,-92.0613,10.0,13.76,11111222 
WAVCIS,ioos:station:WAVCIS:CSI03:1,2008-12-10T19:00:00Z,29.4412,-92.0613,10.0,13.8,11111222 
WAVCIS,ioos:station:WAVCIS:CSI03:1,2008-12-10T20:00:00Z,29.4412,-92.0613,10.0,13.81,11111222 
WAVCIS,ioos:station:WAVCIS:CSI03:1,2008-12-10T21:00:00Z,29.4412,-92.0613,10.0,13.72,11111222 
WAVCIS,ioos:station:WAVCIS:CSI03:1,2008-12-10T22:00:00Z,29.4412,-92.0613,10.0,13.62,11111222 
WAVCIS,ioos:station:WAVCIS:CSI03:1,2008-12-10T23:00:00Z,29.4412,-92.0613,10.0,13.56,11111222 
WAVCIS,ioos:station:WAVCIS:CSI03:1,2008-12-11T00:00:00Z,29.4412,-92.0613,10.0,13.5,11111222 
WAVCIS,ioos:station:WAVCIS:CSI03:1,2008-12-11T01:00:00Z,29.4412,-92.0613,10.0,13.57,11111222 
WAVCIS,ioos:station:WAVCIS:CSI03:1,2008-12-11T02:00:00Z,29.4412,-92.0613,10.0,13.74,11111222 
WAVCIS,ioos:station:WAVCIS:CSI03:1,2008-12-11T03:00:00Z,29.4412,-92.0613,10.0,13.72,11111222 
WAVCIS,ioos:station:WAVCIS:CSI03:1,2008-12-11T04:00:00Z,29.4412,-92.0613,10.0,13.55,11111222 
WAVCIS,ioos:station:WAVCIS:CSI03:1,2008-12-11T05:00:00Z,29.4412,-92.0613,10.0,13.53,11111222 
WAVCIS,ioos:station:WAVCIS:CSI03:1,2008-12-11T06:00:00Z,29.4412,-92.0613,10.0,13.47,11111222 
WAVCIS,ioos:station:WAVCIS:CSI03:1,2008-12-11T07:00:00Z,29.4412,-92.0613,10.0,13.79,11111222 
WAVCIS,ioos:station:WAVCIS:CSI03:1,2008-12-11T08:00:00Z,29.4412,-92.0613,10.0,13.89,11111222 
WAVCIS,ioos:station:WAVCIS:CSI03:1,2008-12-11T09:00:00Z,29.4412,-92.0613,10.0,13.8,11111222 
WAVCIS,ioos:station:WAVCIS:CSI03:1,2008-12-11T10:00:00Z,29.4412,-92.0613,10.0,13.63,11111222 
WAVCIS,ioos:station:WAVCIS:CSI03:1,2008-12-11T11:00:00Z,29.4412,-92.0613,10.0,13.42,11111222 
WAVCIS,ioos:station:WAVCIS:CSI03:1,2008-12-11T12:00:00Z,29.4412,-92.0613,10.0,13.2,11111222 
WAVCIS,ioos:station:WAVCIS:CSI03:1,2008-12-11T13:00:00Z,29.4412,-92.0613,10.0,12.96,11111222 